TimeEST,TemperatureF,Dew PointF,Humidity,Sea Level PressureIn,VisibilityMPH,Wind Direction,Wind SpeedMPH,Gust SpeedMPH,PrecipitationIn,Events,Conditions,WindDirDegrees,DateUTC
12:08 AM,33.8,32.0,93,29.82,0.5,WSW,3.5,-,N/A,Fog-Rain,Light Rain,250,2012-12-11 05:08:00
12:16 AM,33.8,32.0,93,29.82,2.0,Calm,Calm,-,0.00,,Overcast,0,2012-12-11 05:16:00
12:23 AM,33.8,32.0,93,29.82,7.0,West,3.5,-,0.00,,Overcast,260,2012-12-11 05:23:00
12:51 AM,34.0,32.0,92,29.84,7.0,WSW,3.5,-,0.00,,Overcast,250,2012-12-11 05:51:00
1:51 AM,34.0,32.0,92,29.86,10.0,West,5.8,-,N/A,,Overcast,280,2012-12-11 06:51:00
2:17 AM,33.8,32.0,93,29.84,10.0,West,6.9,-,N/A,,Overcast,280,2012-12-11 07:17:00
2:46 AM,33.8,32.0,93,29.84,10.0,NW,5.8,-,N/A,,Overcast,310,2012-12-11 07:46:00
2:51 AM,34.0,32.0,92,29.87,10.0,WNW,5.8,-,N/A,,Overcast,300,2012-12-11 07:51:00
3:05 AM,33.8,32.0,93,29.85,10.0,WNW,6.9,-,N/A,,Overcast,300,2012-12-11 08:05:00
3:29 AM,33.8,32.0,93,29.86,4.0,NW,6.9,-,0.00,Snow,Light Snow,320,2012-12-11 08:29:00
3:51 AM,34.0,32.0,92,29.88,4.0,NNW,4.6,-,0.00,Snow,Light Snow,330,2012-12-11 08:51:00
4:04 AM,33.8,32.0,93,29.86,2.0,NNW,4.6,-,0.01,Snow,Light Snow,330,2012-12-11 09:04:00
4:14 AM,33.8,32.0,93,29.86,8.0,NW,4.6,-,0.01,,Overcast,320,2012-12-11 09:14:00
4:32 AM,33.8,30.2,87,29.87,5.0,NW,5.8,-,0.01,Snow,Light Snow,310,2012-12-11 09:32:00
4:40 AM,33.8,30.2,87,29.87,4.0,NW,6.9,-,0.01,Snow,Light Snow,320,2012-12-11 09:40:00
4:51 AM,33.1,30.9,92,29.91,3.0,NW,8.1,-,0.01,Snow,Light Snow,320,2012-12-11 09:51:00
5:21 AM,33.8,30.2,87,29.89,3.0,NNW,5.8,-,0.00,Snow,Light Snow,330,2012-12-11 10:21:00
5:42 AM,33.8,30.2,87,29.90,10.0,NW,5.8,-,0.00,,Overcast,320,2012-12-11 10:42:00
5:51 AM,33.1,30.9,92,29.94,7.0,NW,4.6,-,0.00,Snow,Light Snow,320,2012-12-11 10:51:00
5:59 AM,33.8,30.2,87,29.91,7.0,NNW,3.5,-,0.00,Snow,Light Snow,330,2012-12-11 10:59:00
6:23 AM,33.8,30.2,87,29.91,9.0,NW,9.2,-,0.00,,Overcast,320,2012-12-11 11:23:00
6:51 AM,32.0,28.9,88,29.95,9.0,North,10.4,-,0.00,,Overcast,350,2012-12-11 11:51:00
7:02 AM,32.0,30.2,93,29.92,4.0,NNW,8.1,-,0.00,Snow,Light Snow,330,2012-12-11 12:02:00
7:24 AM,30.2,28.4,93,29.95,2.5,NNW,5.8,-,0.00,Snow,Light Snow,340,2012-12-11 12:24:00
7:36 AM,30.2,28.4,93,29.96,1.5,NNW,6.9,-,0.00,Snow,Light Snow,330,2012-12-11 12:36:00
7:46 AM,30.2,28.4,93,29.96,0.8,NNW,6.9,-,0.00,Snow,Light Snow,340,2012-12-11 12:46:00
7:51 AM,30.2,28.4,93,29.96,1.8,NNW,8.1,-,N/A,Snow,Light Snow,340,2012-12-11 12:51:00
7:54 AM,30.2,28.4,93,29.96,3.0,NNW,6.9,-,0.00,Snow,Light Snow,340,2012-12-11 12:54:00
8:02 AM,30.2,28.4,93,29.96,1.8,NNW,5.8,-,0.00,Snow,Light Snow,340,2012-12-11 13:02:00
8:21 AM,30.2,28.4,93,29.96,0.8,NNW,5.8,-,0.00,Snow,Light Snow,340,2012-12-11 13:21:00
8:30 AM,30.2,28.4,93,29.97,1.8,NW,8.1,-,0.00,Snow,Light Snow,320,2012-12-11 13:30:00
8:38 AM,30.2,28.4,93,29.97,2.0,NNW,5.8,-,0.00,Snow,Light Snow,340,2012-12-11 13:38:00
8:51 AM,30.9,28.9,92,30.04,5.0,NW,5.8,-,0.00,,Overcast,310,2012-12-11 13:51:00
8:58 AM,30.2,28.4,93,29.98,2.5,NW,6.9,-,0.00,Snow,Light Snow,310,2012-12-11 13:58:00
9:06 AM,30.2,28.4,93,29.98,0.8,NW,5.8,-,0.00,Snow,Light Snow,320,2012-12-11 14:06:00
9:25 AM,30.2,28.4,93,29.99,1.0,NW,8.1,-,0.01,Snow,Light Snow,310,2012-12-11 14:25:00
9:29 AM,30.2,28.4,93,29.99,4.0,NW,6.9,-,0.01,Snow,Light Snow,310,2012-12-11 14:29:00
9:38 AM,30.2,28.4,93,29.99,10.0,NW,8.1,-,0.01,,Overcast,310,2012-12-11 14:38:00
9:51 AM,30.9,28.9,92,30.07,10.0,NW,6.9,-,0.01,,Overcast,320,2012-12-11 14:51:00
10:38 AM,30.2,28.4,93,30.02,2.5,NNW,8.1,-,0.00,Snow,Light Snow,330,2012-12-11 15:38:00
10:46 AM,30.2,28.4,93,30.03,1.0,NNW,5.8,-,0.00,Snow,Light Snow,330,2012-12-11 15:46:00
10:51 AM,30.9,28.0,89,30.11,1.5,NW,5.8,-,0.00,Snow,Light Snow,320,2012-12-11 15:51:00
10:54 AM,30.2,28.4,93,30.03,3.0,NNW,5.8,-,0.00,Snow,Light Snow,340,2012-12-11 15:54:00
11:01 AM,30.2,28.4,93,30.04,2.5,NNW,5.8,-,0.00,Snow,Light Snow,340,2012-12-11 16:01:00
11:06 AM,30.2,28.4,93,30.04,0.8,North,8.1,-,0.00,Snow,Light Snow,350,2012-12-11 16:06:00
11:20 AM,30.2,26.6,86,30.04,2.0,NW,8.1,-,0.01,Snow,Light Snow,320,2012-12-11 16:20:00
11:22 AM,30.2,26.6,86,30.04,4.0,NW,6.9,-,0.01,Snow,Light Snow,310,2012-12-11 16:22:00
11:34 AM,30.2,26.6,86,30.04,7.0,NNW,8.1,-,0.01,,Overcast,330,2012-12-11 16:34:00
11:51 AM,30.0,27.0,88,30.11,6.0,NW,5.8,-,0.01,,Overcast,320,2012-12-11 16:51:00
12:51 PM,30.2,26.6,86,30.03,10.0,WNW,6.9,-,N/A,,Overcast,300,2012-12-11 17:51:00
1:24 PM,30.2,26.6,86,30.03,10.0,NNW,8.1,-,N/A,,Overcast,330,2012-12-11 18:24:00
1:51 PM,30.0,25.0,82,30.12,10.0,NNW,8.1,-,N/A,,Overcast,330,2012-12-11 18:51:00
2:10 PM,28.4,24.8,86,30.04,10.0,NW,6.9,-,N/A,,Overcast,310,2012-12-11 19:10:00
2:18 PM,28.4,24.8,86,30.04,10.0,NNW,8.1,-,N/A,,Overcast,330,2012-12-11 19:18:00
2:51 PM,28.9,24.1,82,30.13,10.0,NW,8.1,-,N/A,,Overcast,320,2012-12-11 19:51:00
3:51 PM,28.4,21.2,74,30.07,10.0,NNW,5.8,-,N/A,,Overcast,330,2012-12-11 20:51:00
4:51 PM,28.9,21.9,75,30.18,10.0,WNW,4.6,-,N/A,,Overcast,300,2012-12-11 21:51:00
5:51 PM,28.4,23.0,80,30.10,10.0,North,3.5,-,N/A,,Overcast,350,2012-12-11 22:51:00
6:51 PM,28.9,21.0,72,30.22,10.0,Calm,Calm,-,N/A,,Overcast,0,2012-12-11 23:51:00
7:51 PM,28.9,21.9,75,30.22,10.0,North,3.5,-,N/A,,Overcast,360,2012-12-12 00:51:00
8:51 PM,28.9,21.0,72,30.24,10.0,Calm,Calm,-,N/A,,Overcast,0,2012-12-12 01:51:00
9:51 PM,28.0,21.0,75,30.24,10.0,Calm,Calm,-,N/A,,Mostly Cloudy,0,2012-12-12 02:51:00
10:01 PM,28.4,21.2,74,30.15,10.0,Calm,Calm,-,N/A,,Partly Cloudy,0,2012-12-12 03:01:00
10:51 PM,26.6,23.0,86,30.16,10.0,Calm,Calm,-,N/A,,Clear,0,2012-12-12 03:51:00
11:51 PM,26.1,21.9,84,30.27,10.0,Calm,Calm,-,N/A,,Clear,0,2012-12-12 04:51:00